Regional Weather Roundup
Issued by NWS

Home | Current Version | Previous Version | Text Only | Print | Product List | Glossary On
Versions: 1 2 3 4 5 6 7 8 9 10 11 12 13 14 15 16 17 18 19 20 21 22 23 24 25 26 27 28 29 30 31 32 33 34 35 36 37 38 39 40 41 42 43 44 45 46 47 48 49 50
000
ASUS44 KFWD 070215
RWRTX
NORTH TEXAS HOURLY WEATHER ROUNDUP
NATIONAL WEATHER SERVICE FORT WORTH TX
900 PM CDT WED MAY 06 2015

NOTE: "FAIR" INDICATES FEW OR NO CLOUDS BELOW 12,000 FEET WITH NO
SIGNIFICANT WEATHER AND/OR OBSTRUCTIONS TO VISIBILITY.

TXZ118-119-070300-
DALLAS/FORT WORTH METROPLEX

CITY           SKY/WX    TMP DP  RH WIND       PRES   REMARKS
DFW AIRPORT    CLOUDY    76  68  76 SE17G23   29.84R
DALLAS LOVE    CLOUDY    77  68  73 SE22      29.85S
FTW MEACHAM    CLOUDY    78  68  71 SE15      29.83R
DAL-EXECUTIVE  MOCLDY    75  68  78 SE15      29.85S
FTW-ALLIANCE   CLOUDY    76  68  76 SE10G23   29.84R
FTW-NAS-JRB    CLOUDY    78  69  73 SE12      29.84R
FTW-SPINKS     MOCLDY    76  69  78 SE8       29.86S
ARLINGTON      MOCLDY    77  68  73 SE12      29.85R
GRAND PRAIRIE  CLOUDY    76  70  80 SE10G16   29.86S
MESQUITE       MOCLDY    75  68  79 SE8       29.87S
LANCASTER      PTCLDY    74  67  80 SE9       29.88R
$$

TXZ091>094-102>105-117-120-121-131>134-070300-
NORTH CENTRAL TEXAS

CITY           SKY/WX    TMP DP  RH WIND       PRES   REMARKS
SHRMAN/DENISON CLOUDY    76  71  82 SE8       29.90R
GAINESVILLE    LGT RAIN  73  68  82 SE8       29.89R
BOWIE          CLOUDY    72  68  85 E3        29.87R
BRIDGEPORT     CLOUDY    76  69  78 SE8       29.86R
DECATUR        CLOUDY    74  66  74 SE9       29.87R
DENTON         CLOUDY    77  68  73 SE14      29.85S
MCKINNEY       CLOUDY    75  68  78 SE9       29.88R
GREENVILLE     CLOUDY    73  66  78 SE8       29.89S
ROCKWALL       CLOUDY    74  69  83 SE6       29.87R
TERRELL        MOCLDY    77  68  73 SE9       29.88S
WAXAHACHIE     PTCLDY    74  69  85 SE9       29.87S
CLEBURNE       PTCLDY    75  73  94 SE12      29.86R
GRANBURY         N/A     78  69  74 SE9       29.84R
$$

TXZ083>090-098>101-113>116-127>130-139>142-154-155-070300-
WESTERN NORTH TEXAS

CITY           SKY/WX    TMP DP  RH WIND       PRES   REMARKS
WICHITA FALLS  LGT RAIN  73  67  81 SE31G41   29.76S
WF-KICKAPOO    TSTM      74  69  83 SE20G31   29.79R
VERNON         MOCLDY    70  56  60 SE18G24   29.74F
ABILENE        PTCLDY    79  62  56 S17G24    29.78R
ABILENE-DYESS  PTCLDY    79  63  57 S21G28    29.75S
BRECKENRIDGE   PTCLDY    80  63  56 SE14      29.77S
GRAHAM         CLOUDY    76  68  76 E10G17    29.80R
MINERAL WELLS  CLOUDY    76  68  76 SE15      29.80S
STEPHENVILLE   PTCLDY    76  66  69 SE12      29.86R
COMANCHE       PTCLDY    77  66  69 S12       29.82S
BROWNWOOD      MOCLDY    79  64  61 S14G22    29.83R
COLEMAN        CLOUDY    78  64  62 S14G20    29.83R
BRADY          CLEAR     75  64  69 SE9       29.83S
$$

TXZ143>147-156>162-174-175-070300-
CENTRAL TEXAS

CITY           SKY/WX    TMP DP  RH WIND       PRES   REMARKS
WACO           MOCLDY    77  69  76 SE14G23   29.85R
WACO-TSTC      PTCLDY    77  70  78 SE7       29.86R
WACO-MCGREGOR  PTCLDY    79  66  65 SE14G21   29.87R
HILLSBORO      CLEAR     75  68  78 E10G17    29.86R
CORSICANA      MOCLDY    76  69  79 SE10      29.89S
MEXIA          PTCLDY    75  70  85 SE14      29.87S
HEARNE         MOCLDY    77  71  81 SE10      29.89R
CAMERON        CLOUDY    79  69  71 S8G17     29.87R
TEMPLE         MOCLDY    79  64  61 SE13G21   29.85R
KILLEEN        PTCLDY    76  68  75 SE13      29.85R
KILLEEN-SKYLRK PTCLDY    79  64  61 SE13      29.86R
FORT HOOD      PTCLDY    78  67  70 SE14G21   29.85R
GATESVILLE     CLEAR     77  68  73 SE6       29.87R
HAMILTON       CLEAR     76  66  69 SE14      29.86R
LAMPASAS       PTCLDY    78  69  73 SE9G16    29.85R
$$

TXZ095>097-106>112-122>126-135>138-148>153-164>167-070300-
EAST TEXAS

CITY           SKY/WX    TMP DP  RH WIND       PRES   REMARKS
PARIS          CLOUDY    73  66  78 SE10      29.93R
SULPHUR SPRNGS CLOUDY    74  69  83 SE7       29.93S
MOUNT PLEASANT MOCLDY   N/A N/A N/A SE8       29.96R
GILMER         CLOUDY    71  68  90 SE5       29.95R
MINEOLA        CLOUDY    75  70  83 SE6       29.93R
TYLER          CLOUDY    75  68  78 SE10      29.93R
LONGVIEW       CLOUDY    72  69  90 SE3       29.95R
MARSHALL       CLOUDY    74  68  81 CALM      29.98R
ATHENS         PTCLDY    72  70  94 SE5       29.90S
PALESTINE      MOCLDY    75  69  81 SE5       29.92S
JACKSONVILLE   MOCLDY    73  69  87 SE6       29.96R
HENDERSON      CLOUDY    73  68  87 SE7       29.95R
NACOGDOCHES    MOCLDY    72  66  83 S3        29.95R
LUFKIN         PTCLDY    72  67  84 E6        29.95R
$$

SUPPLEMENTAL OBSERVATIONS (CENTRAL)

CITY           SKY/WX    TMP DP  RH WIND       PRES   REMARKS
LAKE TEXOMA      N/A     73  66  78 SE6         N/A
CADDO GRASSLND   N/A     73  66  78 SE6         N/A
PAT MAYSE LAKE   N/A     73  68  83 E8          N/A
GREENVILLE       N/A     75  66  73 SE7         N/A
CEDAR HILL       N/A     75  68  78 SE7G15      N/A
ATHENS           N/A     75  70  83 SE12        N/A
MCGREGOR         N/A     77  70  78 SE9         N/A
$$

SUPPLEMENTAL OBSERVATIONS (WEST)

CITY           SKY/WX    TMP DP  RH WIND       PRES   REMARKS
MILLERS CREEK    N/A     72  63  73 S16G25      N/A
LBJ GRASSLAND    N/A     75  66  73 SE6         N/A
HAMBY            N/A     79  61  53 S17         N/A
IVIE RESERVOIR   N/A     79  63  57 SE12G20     N/A
COLORADO BEND    N/A     75  63  64 SW9G17      N/A
$$

SUPPLEMENTAL OBSERVATIONS (EAST)

CITY           SKY/WX    TMP DP  RH WIND       PRES   REMARKS
CLARKSVILLE      N/A     73  68  83 SE7         N/A
TEXARKANA        N/A     70  64  83 CALM        N/A
LINDEN           N/A     72  66  83 CALM        N/A
CADDO LAKE       N/A     72  66  83 CALM        N/A
GILMER           N/A     72  68  88 SE5         N/A
HENDERSON        N/A     73  68  83 SE5         N/A
LUFKIN           N/A     72  66  83 MISG        N/A
S SABINE NF      N/A     72  66  83 CALM        N/A
$$

SUPPLEMENTAL OBSERVATIONS ARE A COLLECTION OF AUTOMATED INSTRUMENTS
THAT ARE MAINTAINED BY A VARIETY OF FEDERAL AND STATE AGENCIES.
CERTAIN ELEMENTS...SUCH AS HUMIDITY VALUES AND SUSTAINED WIND
SPEEDS...MAY BE APPROXIMATED.




USA.gov is the U.S. government's official web portal to all federal, state and local government web resources and services.